[[{"header":{"parameterUnit":"m.s-1","parameterCategory":1,"la1":30.2991,"la2":30.254,"lo1":-89.0895,"lo2":-89.0444,"dy":0.0017,"dx":0.0017,"nx":28,"ny":28,"refTime":"2025-06-06T03:00:00:Z","depth":0,"parameterNumber":2,"parameterNumberName":"U-component_of_WINDS"},"data":[0,0,0,0,0,0,0,0,0,0,0,0,0,0,0,0,0,0,0,0,0,0,0,0,0,0,0,0,0,0,0,0,0,0,0,0,0,0,0,0,0,0,0,0,0,0,0,0,0,0,0,0,0,0,0,0,0,0,1.3503,1.3504,0,1.3613,1.3614,1.3615,1.3607,1.3606,1.3604,1.3603,1.3717,1.3721,1.3726,0,0,0,0,0,0,0,0,0,0,0,0,0,1.3287,1.3291,1.3503,1.3504,1.3506,1.3613,1.3614,1.3616,1.3608,1.3606,1.3604,1.3602,1.3716,1.3721,1.3726,0,0,0,0,0,0,0,0,0,0,0,0,0,1.3387,1.3292,1.3503,1.3515,1.3517,1.3612,1.3614,1.3616,1.3608,1.3606,1.3603,1.3601,1.3714,1.372,1.3727,1.3819,0,0,1.3748,1.3751,0,0,0,0,0,0,0,0,1.3381,1.3395,1.3512,1.3514,1.3517,1.3594,1.358,1.3684,1.3609,1.3574,1.3603,1.36,1.3678,1.3688,1.3714,1.3824,1.3829,1.3749,1.3753,1.3756,1.3758,0,0,0,0,0,0,0,1.3375,1.339,1.3546,1.3513,1.3516,1.3515,1.3526,1.36,1.3638,1.3576,1.3576,1.3589,1.3679,1.3707,1.3716,1.3831,1.3749,1.3755,1.3759,1.3762,1.402,1.4023,0,0,0,0,0,0,1.3365,1.3385,1.3543,1.355,1.3442,1.352,1.3533,1.3572,1.3637,1.3645,1.3591,1.3588,1.3697,1.3708,1.372,1.3832,1.3756,1.3762,1.3766,1.4017,1.4021,1.4024,0,0,0,0,0,0,1.336,1.3379,1.3539,1.3467,1.3487,1.3527,1.357,1.3575,1.3603,1.3649,1.3656,1.3613,1.3695,1.3711,1.3794,1.3835,1.3765,1.3772,1.4014,1.4018,1.4022,1.4055,0,0,0,0,0,0,1.3354,1.3377,1.3413,1.3468,1.3491,1.361,1.3572,1.3579,1.3615,1.3612,1.3671,1.3678,1.3695,1.3784,1.3801,1.3844,1.3777,1.4011,1.4016,1.4021,1.405,1.4059,1.4067,0,0,0,0,0,1.3346,1.3418,1.3414,1.3434,1.3536,1.3613,1.3626,1.3643,1.3618,1.3654,1.3683,1.3676,1.3828,1.3792,1.3811,1.3857,1.4008,1.4015,1.4021,1.4046,1.4058,1.4067,0,0,0,0,0,0,1.3368,1.3426,1.3422,1.3514,1.3558,1.3611,1.3657,1.3654,1.3707,1.3703,1.3722,1.3735,1.3819,1.3846,1.3805,1.3948,1.3915,1.3925,1.3928,1.3939,1.3947,1.394,1.3783,0,0,0,0,0,1.3383,1.344,1.3487,1.3564,1.3586,1.3618,1.3652,1.366,1.3708,1.3727,1.3762,1.3808,1.3866,1.3904,1.3959,1.4053,1.4066,1.4094,1.4103,1.4109,1.4119,1.417,1.4183,1.4044,1.4044,1.4044,0,0,1.3415,1.3454,1.3489,1.3569,1.3604,1.3663,1.3634,1.3697,1.3741,1.3736,1.3817,1.3844,1.3897,1.3985,1.4026,1.4011,1.4159,1.4117,1.4123,1.4128,1.4177,1.4191,1.4202,1.4048,1.4048,1.4047,0,0,1.3504,1.3539,1.3606,1.3642,1.3695,1.3716,1.3732,1.3785,1.3802,1.3883,1.388,1.3932,1.4032,1.4069,1.4102,1.4203,1.4199,1.422,1.4266,1.4315,1.4326,1.4336,1.4372,1.4385,1.4229,1.4229,1.4229,0,1.3538,1.3627,1.3641,1.3705,1.3741,1.3737,1.3805,1.3839,1.3909,1.3933,1.3914,1.4038,1.4073,1.4171,1.4195,1.4221,1.424,1.4214,1.4323,1.4333,1.4343,1.4378,1.4391,1.4231,1.4231,1.4231,1.423,0,1.3665,1.3726,1.3774,1.384,1.388,1.3946,1.3971,1.401,1.4015,1.4037,1.4118,1.416,1.4224,1.4247,1.4253,1.4345,1.4334,1.4319,1.4286,1.4358,1.4391,1.4404,1.4234,1.4234,1.4233,1.4232,0,0,1.3773,1.3845,1.3862,1.3892,1.395,1.3997,1.4062,1.4124,1.4157,1.4204,1.4259,1.4342,1.4328,1.4365,1.4374,1.4418,1.4495,1.4398,1.4399,1.4415,1.4599,1.461,1.4625,1.4492,1.4494,1.4496,1.4594,0,1.3868,1.3984,1.3998,1.41,1.4157,1.4154,1.421,1.4252,1.4273,1.4324,1.4348,1.4407,1.4384,1.4406,1.4449,1.4477,1.4532,1.4469,1.4544,1.4546,1.4532,1.4643,1.4655,1.4746,1.4607,1.4609,1.4611,0,1.3996,1.4046,1.4153,1.4202,1.4227,1.4277,1.4334,1.4383,1.4429,1.4442,1.4482,1.4485,1.4552,1.4515,1.4608,1.4565,1.4595,1.4613,1.4617,1.4626,1.4584,1.4655,1.4775,1.4789,1.4631,1.463,1.4628,0,1.4064,1.4158,1.4234,1.426,1.4319,1.4354,1.438,1.4424,1.446,1.451,1.4533,1.459,1.4621,1.4665,1.4684,1.4655,1.4776,1.474,1.4788,1.4788,1.4815,1.4814,1.4943,1.4833,1.4833,1.4833,1.4833,0,1.417,1.4236,1.4266,1.4313,1.4387,1.4402,1.4475,1.4499,1.4538,1.459,1.459,1.4639,1.466,1.4712,1.4727,1.4801,1.4816,1.4828,1.4831,1.4829,1.4827,1.485,1.4845,1.4837,1.4836,1.4835,1.4834,0,1.426,1.4282,1.4365,1.4413,1.4427,1.4479,1.452,1.4566,1.4586,1.4652,1.4668,1.47,1.4761,1.4783,1.4858,1.4868,1.4954,1.4952,1.4938,1.4939,1.4987,1.4982,1.5137,1.5158,1.5033,1.5034,1.5035,0,1.4326,1.4377,1.443,1.4464,1.4492,1.4547,1.4583,1.4599,1.4637,1.4693,1.4731,1.4792,1.4841,1.4938,1.4968,1.5025,1.5025,1.5075,1.5034,1.5029,1.5026,1.5023,1.5029,1.5083,1.5084,1.5085,1.5086,0,1.4442,1.445,1.4502,1.4557,1.46,1.4644,1.4688,1.4716,1.4738,1.478,1.4842,1.488,1.4955,1.5015,1.5073,1.51,1.5097,1.5098,1.5113,1.5111,1.5102,1.5108,1.496,1.5095,1.5095,1.5094,1.5093,1.5093,1.4523,1.4568,1.4612,1.4669,1.4703,1.4742,1.4787,1.4812,1.4864,1.4926,1.4932,1.4999,1.5043,1.512,1.5149,1.5201,1.5188,1.5208,1.5214,1.5219,1.5223,1.5092,1.5212,1.5211,1.5211,1.5211,1.5211,0,1.464,1.4667,1.472,1.4779,1.4824,1.4816,1.4863,1.4901,1.4959,1.5,1.5048,1.5118,1.5176,1.521,1.5267,1.5302,1.5303,1.5317,1.5315,1.5322,1.5231,1.5213,1.5316,1.5316,1.5316,1.5316,1.5316,1.5316,1.4706,1.4781,1.4794,1.4885,1.4912,1.4977,1.5004,1.5041,1.5073,1.5152,1.5199,1.522,1.5258,1.5318,1.537,1.5379,1.54,1.5416,1.5424,1.5339,1.5328,1.5318,1.5301,1.5421,1.5421,1.551,1.5511,1.5511]},{"header":{"parameterUnit":"m.s-1","parameterCategory":1,"la1":30.2991,"la2":30.254,"lo1":-89.0895,"lo2":-89.0444,"dy":0.0017,"dx":0.0017,"nx":28,"ny":28,"refTime":"2025-06-06T03:00:00:Z","depth":0,"parameterNumber":3,"parameterNumberName":"V-component_of_WINDS"},"data":[0,0,0,0,0,0,0,0,0,0,0,0,0,0,0,0,0,0,0,0,0,0,0,0,0,0,0,0,0,0,0,0,0,0,0,0,0,0,0,0,0,0,0,0,0,0,0,0,0,0,0,0,0,0,0,0,0,0,6.6891,6.6892,0,6.6996,6.6997,6.6998,6.6952,6.6949,6.6947,6.6944,6.7042,6.7046,6.7051,0,0,0,0,0,0,0,0,0,0,0,0,0,6.6638,6.6643,6.6891,6.6892,6.6894,6.6996,6.6997,6.6999,6.6952,6.6949,6.6946,6.6943,6.704,6.7046,6.7052,0,0,0,0,0,0,0,0,0,0,0,0,0,6.6746,6.6644,6.6891,6.6883,6.6883,6.6996,6.6997,6.6999,6.6953,6.6949,6.6945,6.6941,6.7038,6.7045,6.7053,6.7176,0,0,6.7075,6.7079,0,0,0,0,0,0,0,0,6.674,6.6755,6.6883,6.6884,6.6884,6.6957,6.6944,6.7058,6.6954,6.6926,6.6944,6.694,6.7016,6.7025,6.7053,6.718,6.7185,6.7076,6.7081,6.7084,6.7086,0,0,0,0,0,0,0,6.6732,6.675,6.6932,6.6884,6.6885,6.687,6.6881,6.6965,6.6991,6.6928,6.6925,6.6939,6.7015,6.7046,6.7055,6.7186,6.7076,6.7083,6.7087,6.709,6.7418,6.7422,0,0,0,0,0,0,6.6726,6.6744,6.6929,6.6935,6.6801,6.6878,6.689,6.6937,6.699,6.6994,6.6942,6.6936,6.7035,6.7046,6.7058,6.7205,6.7084,6.7091,6.7095,6.7413,6.7418,6.7423,0,0,0,0,0,0,6.6721,6.6743,6.6924,6.6839,6.6861,6.6887,6.694,6.6941,6.6972,6.7001,6.7004,6.6969,6.7032,6.7047,6.7147,6.7207,6.7094,6.7101,6.7408,6.7415,6.7421,6.75,0,0,0,0,0,0,6.6714,6.6742,6.6792,6.6841,6.6866,6.7016,6.6943,6.6946,6.6986,6.698,6.7027,6.7031,6.703,6.7136,6.7155,6.7216,6.7107,6.7403,6.7411,6.7419,6.7492,6.7508,6.7522,0,0,0,0,0,6.6705,6.6808,6.6794,6.6817,6.6929,6.7019,6.7033,6.7034,6.6991,6.7039,6.7058,6.7029,6.7198,6.7147,6.7167,6.7231,6.7399,6.7409,6.7418,6.7485,6.7505,6.7521,0,0,0,0,0,0,6.6761,6.6814,6.68,6.6922,6.6967,6.7011,6.7072,6.7055,6.711,6.7101,6.7096,6.7107,6.721,6.723,6.7173,6.7352,6.7292,6.7306,6.7335,6.7354,6.7369,6.7361,6.7113,0,0,0,0,0,6.6788,6.6861,6.6901,6.7005,6.7029,6.7047,6.7086,6.7083,6.7128,6.7145,6.7171,6.7212,6.7275,6.7316,6.7374,6.7494,6.7502,6.7548,6.7563,6.7575,6.7587,6.765,6.767,6.7454,6.7454,6.7454,0,0,6.6844,6.6882,6.6927,6.7017,6.7052,6.7123,6.7063,6.7141,6.7193,6.7156,6.7253,6.7273,6.7318,6.7429,6.7478,6.7449,6.7649,6.7587,6.7597,6.7602,6.7662,6.7682,6.7701,6.7461,6.7459,6.7458,0,0,6.6982,6.7019,6.7109,6.7145,6.72,6.7211,6.7233,6.728,6.7293,6.739,6.7364,6.7423,6.7531,6.7565,6.7596,6.7746,6.7721,6.7765,6.7843,6.7904,6.7921,6.7936,6.7988,6.8007,6.7777,6.7777,6.7777,0,6.7043,6.7154,6.7156,6.7238,6.7277,6.725,6.7339,6.7372,6.7442,6.7467,6.7434,6.7569,6.7598,6.7715,6.7751,6.7778,6.78,6.7759,6.7919,6.7934,6.7948,6.7998,6.8018,6.7782,6.7781,6.7781,6.778,0,6.7225,6.7302,6.7368,6.7439,6.7485,6.757,6.7582,6.7628,6.762,6.7634,6.7732,6.7766,6.7831,6.7858,6.785,6.7974,6.7954,6.792,6.7859,6.7974,6.802,6.8039,6.7789,6.7787,6.7786,6.7785,0,0,6.7401,6.7474,6.7498,6.753,6.7587,6.7644,6.7726,6.7793,6.7832,6.7879,6.7946,6.8038,6.8007,6.8043,6.8038,6.8092,6.8207,6.8051,6.8052,6.8078,6.8342,6.8367,6.8389,6.8191,6.8195,6.8198,6.8338,0,6.7543,6.7691,6.7695,6.7829,6.7898,6.7873,6.7944,6.7984,6.7999,6.8057,6.8071,6.8137,6.8092,6.8113,6.8166,6.8182,6.826,6.8172,6.825,6.8252,6.8239,6.8413,6.844,6.8571,6.8356,6.836,6.8362,0,6.7728,6.7786,6.7927,6.7975,6.8004,6.8068,6.8129,6.8186,6.823,6.8236,6.8276,6.8264,6.8343,6.828,6.8388,6.8328,6.836,6.8373,6.8378,6.8384,6.8314,6.8423,6.8613,6.8632,6.8391,6.8388,6.8386,0,6.7841,6.7953,6.8053,6.808,6.8138,6.8183,6.8209,6.825,6.8289,6.8341,6.8366,6.8425,6.8457,6.8502,6.8504,6.8458,6.8612,6.855,6.8617,6.8617,6.865,6.8647,6.8846,6.8672,6.8672,6.8671,6.8671,0,6.7998,6.8085,6.8104,6.8165,6.8261,6.8263,6.8356,6.8377,6.8414,6.8475,6.8456,6.8513,6.8514,6.8571,6.8572,6.866,6.8675,6.868,6.8679,6.8682,6.8681,6.8702,6.8692,6.8677,6.8675,6.8674,6.8674,0,6.8139,6.8157,6.8263,6.8309,6.8323,6.8391,6.8429,6.8485,6.8498,6.8576,6.8594,6.8614,6.868,6.8687,6.8764,6.8764,6.887,6.886,6.8857,6.8855,6.8921,6.8914,6.9139,6.9167,6.8976,6.8978,6.898,0,6.8238,6.8305,6.836,6.8402,6.8431,6.8498,6.8539,6.8543,6.8585,6.8641,6.869,6.8755,6.8808,6.8914,6.8933,6.899,6.8981,6.9055,6.8989,6.8989,6.898,6.8976,6.8981,6.9068,6.907,6.9072,6.9073,0,6.8411,6.8417,6.8479,6.8544,6.8594,6.8645,6.8692,6.8726,6.8735,6.8783,6.8853,6.8894,6.8973,6.9037,6.9094,6.9115,6.9095,6.9094,6.9112,6.9115,6.911,6.9112,6.8891,6.9089,6.9087,6.9086,6.9085,6.9084,6.8534,6.8592,6.864,6.8709,6.8746,6.879,6.8845,6.8866,6.8926,6.8993,6.899,6.9067,6.9107,6.9182,6.9208,6.9265,6.9239,6.9266,6.9273,6.9279,6.9286,6.9102,6.9275,6.9275,6.9274,6.9274,6.9274,0,6.8705,6.8735,6.8799,6.8867,6.8921,6.8901,6.8951,6.8996,6.9065,6.9106,6.9159,6.9238,6.93,6.9323,6.9383,6.9424,6.9416,6.9439,6.9435,6.944,6.9306,6.9283,6.9445,6.9445,6.9445,6.9445,6.9445,6.9445,6.88,6.8897,6.8908,6.9021,6.9049,6.9127,6.9157,6.9197,6.923,6.932,6.9373,6.9389,6.9422,6.9484,6.9539,6.9544,6.9566,6.9593,6.9594,6.9467,6.945,6.9433,6.9412,6.9598,6.9599,6.9724,6.9725,6.9726]}]]